Date,TemperatureHighF,TemperatureAvgF,TemperatureLowF,DewpointHighF,DewpointAvgF,DewpointLowF,HumidityHigh,HumidityAvg,HumidityLow,PressureMaxIn,PressureMinIn,WindSpeedMaxMPH,WindSpeedAvgMPH,GustSpeedMaxMPH,PrecipitationSumIn
2013-4-1,67,55,43,39,24,4,78,36,10,30.02,29.73,13,3,28,0.02
2013-4-2,57,45,36,34,26,18,77,51,24,30.08,29.83,13,2,23,0.00
2013-4-3,61,48,38,34,27,18,79,50,19,30.25,30.04,4,1,12,0.00
2013-4-4,70,54,38,24,20,10,53,30,10,30.27,29.98,4,1,17,0.00
2013-4-5,66,56,45,31,23,17,46,28,16,30.00,29.75,15,2,25,0.00
2013-4-6,64,51,37,31,25,15,70,41,16,30.05,29.85,6,1,14,0.00
2013-4-7,66,53,40,37,25,10,74,41,11,29.93,29.63,7,2,18,0.00
2013-4-8,64,50,42,40,25,10,84,43,14,29.63,29.31,16,4,23,0.15
2013-4-9,44,32,20,32,26,15,88,79,53,30.30,29.41,9,2,17,0.12
2013-4-10,37,26,17,23,16,11,84,67,47,30.48,30.26,3,1,7,0.19
2013-4-11,52,38,29,31,25,18,77,61,42,30.27,29.97,2,0,5,0.01
2013-4-12,60,46,34,30,26,17,75,49,20,30.06,29.90,8,1,15,0.00
2013-4-13,64,55,35,39,19,8,65,28,12,29.92,29.35,13,5,23,0.00
2013-4-14,53,44,37,41,24,10,88,50,18,29.85,29.49,8,2,16,0.28
2013-4-15,56,43,33,35,30,24,87,65,29,29.79,29.43,11,4,16,0.08
2013-4-16,67,49,30,32,24,13,88,46,13,29.82,29.40,19,8,29,0.00
2013-4-17,34,28,25,28,22,10,88,76,50,30.37,29.76,7,2,16,0.19
2013-4-18,37,28,17,17,10,4,73,50,26,30.58,30.37,9,2,14,0.01
2013-4-19,51,38,22,27,15,6,67,42,23,30.57,30.13,4,1,6,0.00
2013-4-20,55,44,35,34,30,26,79,60,35,30.17,30.02,9,2,14,0.00
2013-4-21,63,48,34,33,27,15,81,49,16,30.27,29.99,4,1,7,0.00
2013-4-22,68,56,47,30,22,10,50,28,11,30.00,29.66,14,4,25,0.00
2013-4-23,48,40,33,32,16,-3,88,42,12,30.30,29.86,12,5,20,0.05
2013-4-24,57,43,31,19,11,2,53,30,13,30.32,30.17,5,1,12,0.00
2013-4-25,68,50,34,24,17,9,57,32,10,30.21,29.87,8,2,19,0.00
2013-4-26,68,54,38,23,16,1,51,26,7,30.19,29.99,6,1,12,0.00
2013-4-27,70,55,38,22,15,6,45,23,9,30.29,30.03,6,2,12,0.00
2013-4-28,76,59,42,27,18,8,39,22,9,30.10,29.80,5,2,10,0.00
2013-4-29,77,63,48,27,20,6,38,21,7,29.86,29.57,6,2,14,0.00
2013-4-30,78,68,56,32,17,8,39,15,7,29.59,29.42,16,6,26,0.00